Weather History for KFRG - September, 2013

Change the Weather History Date:

Monday, September 9, 2013

  Actual Average Record
Temperature  
Mean Temperature 61 °F -  
Max Temperature 70 °F 75 °F 89 °F (2002)
Min Temperature 53 °F 60 °F 53 °F (2013)
Degree Days  
Heating Degree Days 4    
Growing Degree Days 11 (Base 50)    
Moisture  
Dew Point 47 °F    
Average Humidity 58    
Maximum Humidity 76    
Minimum Humidity 36    
Precipitation  
Precipitation 0.00 in - - ()
Sea Level Pressure  
Sea Level Pressure 30.19 in    
Wind  
Wind Speed 5 mph (SE)    
Max Wind Speed 12 mph    
Max Gust Speed 16 mph    
Visibility 10 miles    
Events      
Averages and records for this station are not official NWS values.
T = Trace of Precipitation, MM = Missing Value Source: NWS Daily Summary

Daily Weather History Graph

Daily Weather History Graph

Search for Another Location

Airport or City:

Trip Planner

Search our weather history database for the weather conditions in past years. The results will help you decide how hot, cold, wet, or windy it might be!

Date:

Astronomy

Sep. 09, 2013 Rise Set
Actual Time 6:28 AM EDT 7:12 PM EDT
Civil Twilight 6:00 AM EDT 7:40 PM EDT
Nautical Twilight 5:28 AM EDT 8:12 PM EDT
Astronomical Twilight 4:54 AM EDT 8:46 PM EDT
Moon 10:49 AM EDT (9/9) 9:25 PM EDT (9/9)
Length of Visible Light 13h 39m
Length of Day
12h 43m
Waxing Crescent, 19% of the Moon is Illuminated
Sep 9
Waxing Crescent
Sep 12
First Quarter
Sep 19
Full
Sep 26
Last Quarter
Oct 4
New

Hourly Weather History & Observations

Time (EDT) Temp. Dew Point Humidity Pressure Visibility Wind Dir Wind Speed Gust Speed Precip Events Conditions
12:53 AM 60.1 °F 46.0 °F 60% 30.09 in 10.0 mi ENE 5.8 mph - N/A   Clear
1:53 AM 59.0 °F 45.0 °F 60% 30.11 in 10.0 mi Calm Calm - N/A   Clear
2:53 AM 57.0 °F 44.1 °F 62% 30.13 in 10.0 mi ENE 3.5 mph - N/A   Clear
3:53 AM 55.0 °F 44.1 °F 67% 30.15 in 10.0 mi NE 3.5 mph - N/A   Clear
4:53 AM 54.0 °F 43.0 °F 66% 30.17 in 10.0 mi NNE 3.5 mph - N/A   Clear
5:53 AM 53.1 °F 44.1 °F 71% 30.19 in 10.0 mi North 5.8 mph - N/A   Clear
6:53 AM 53.1 °F 44.1 °F 71% 30.22 in 10.0 mi NNE 5.8 mph - N/A   Clear
7:53 AM 59.0 °F 45.0 °F 60% 30.23 in 10.0 mi ENE 3.5 mph - N/A   Clear
8:53 AM 63.0 °F 45.0 °F 52% 30.24 in 10.0 mi ENE 4.6 mph - N/A   Clear
9:53 AM 64.9 °F 43.0 °F 45% 30.25 in 10.0 mi NE 5.8 mph - N/A   Clear
10:53 AM 66.0 °F 41.0 °F 40% 30.25 in 10.0 mi Calm Calm - N/A   Clear
11:53 AM 68.0 °F 39.9 °F 36% 30.25 in 10.0 mi Variable 6.9 mph - N/A   Clear
12:53 PM 68.0 °F 42.1 °F 39% 30.23 in 10.0 mi Variable 5.8 mph - N/A   Clear
1:53 PM 69.1 °F 46.0 °F 44% 30.22 in 10.0 mi SSW 9.2 mph - N/A   Clear
2:53 PM 68.0 °F 48.0 °F 49% 30.21 in 10.0 mi SSE 9.2 mph - N/A   Clear
3:53 PM 69.1 °F 51.1 °F 53% 30.22 in 10.0 mi South 11.5 mph 16.1 mph N/A   Clear
4:53 PM 69.1 °F 48.9 °F 49% 30.21 in 10.0 mi South 9.2 mph - N/A   Clear
5:53 PM 66.9 °F 50.0 °F 54% 30.19 in 10.0 mi South 11.5 mph - N/A   Clear
6:53 PM 66.0 °F 50.0 °F 56% 30.19 in 10.0 mi South 10.4 mph - N/A   Clear
7:53 PM 64.9 °F 52.0 °F 63% 30.19 in 10.0 mi South 6.9 mph - N/A   Clear
8:53 PM 64.0 °F 54.0 °F 70% 30.19 in 10.0 mi South 6.9 mph - N/A   Clear
9:53 PM 66.0 °F 55.9 °F 70% 30.19 in 10.0 mi South 6.9 mph - N/A   Clear
10:53 PM 66.0 °F 57.9 °F 75% 30.18 in 10.0 mi South 9.2 mph - N/A   Clear
11:53 PM 66.9 °F 59.0 °F 76% 30.17 in 10.0 mi South 9.2 mph - N/A   Mostly Cloudy